Flag for U.S.A. Weather past 2 weeks in Hudson, Wisconsin, U.S.A.

Now
76 °F

Overcast.


Feels Like: 78 °F
Forecast: 54 / 72 °F
Wind: 18 mph from Southwest

Location: St. Paul Downtown Holman Field

Current Time: Sep 19, 2014 at 3:07:18 PM

Latest Report: Sep 19, 2014 at 1:53 PM


Visibility: 10 mi

Pressure: 29.70 "Hg

Humidity: 60%

Dew point: 61 °F

Location of HudsonLocation

Historic Weather in Hudson — Graph

°F

Hudson temperature yesterday

Maximum temperature yesterday: 74 °F (at 3:53 PM)
Minimum temperature yesterday: 48 °F (at 5:53 AM)
Average temperature yesterday: 59 °F

Past Weeks' High & Low Weather Summary

 TemperatureHumidityPressure
High83 °F (Sep 4, 1:53 PM)100% (Sep 13, 6:53 AM)30.45 "Hg (Sep 13, 6:53 AM)
Low37 °F (Sep 13, 6:53 AM)36% (Sep 7, 2:53 PM)29.64 "Hg (Sep 10, 3:53 AM)
Average58 °F72%30.07 "Hg
* Reported Sep 4 1:53 PM — Sep 19 1:53 PM, Hudson, Weather by CustomWeather, © 2014

Note: Actual official high and low records may vary slightly from our data, if they occured in-between our weather recording intervals... More about our weather records

Advertising

Hudson weather history for previous 24 hours

 ConditionsComfort  
Time TempWeatherWind HumidityBarometerVisibility
1:53 PM
Sep 19
76 °FOvercast.18 mph60%29.70 "Hg10 mi
12:53 PM74 °FPartly sunny.18 mph62%29.73 "Hg10 mi
11:53 AM70 °FSunny.23 mph68%29.76 "Hg10 mi
10:53 AM66 °FOvercast.15 mph70%29.80 "Hg10 mi
9:53 AM62 °FOvercast.14 mph75%29.86 "Hg10 mi
8:53 AM59 °FMore clouds than sun.14 mph75%29.90 "Hg10 mi
7:53 AM58 °FPassing clouds.12 mph75%29.92 "Hg10 mi
6:53 AM57 °FClear.13 mph81%29.93 "Hg10 mi
5:53 AM57 °FPassing clouds.9 mph83%29.95 "Hg10 mi
4:53 AM58 °FPassing clouds.9 mph81%29.94 "Hg10 mi
3:53 AM57 °FClear.10 mph87%29.96 "Hg10 mi
2:53 AM58 °FPassing clouds.12 mph87%29.98 "Hg10 mi
1:53 AM58 °FClear.13 mph90%29.98 "Hg10 mi
12:53 AM59 °FClear.10 mph87%29.99 "Hg10 mi
11:53 PM
Sep 18
60 °FClear.12 mph86%30.00 "Hg10 mi
10:53 PM60 °FClear.10 mph86%30.00 "Hg10 mi
9:53 PM62 °FClear.10 mph83%30.00 "Hg10 mi
8:53 PM63 °FClear.13 mph81%30.01 "Hg10 mi
7:53 PM64 °FSunny.9 mph78%30.00 "Hg10 mi
6:53 PM67 °FSunny.9 mph71%29.99 "Hg10 mi
5:53 PM70 °FPassing clouds.9 mph64%29.99 "Hg10 mi
4:53 PM72 °FPassing clouds.8 mph57%29.99 "Hg10 mi
3:53 PM74 °FPassing clouds.6 mph56%30.01 "Hg10 mi
Weather by CustomWeather, © 2014

See weather overviewHow to use our weather pages